AAL2764 KLAX-KSJC

Flight info

Callsign AAL2764
Flight time 0h 47m
Altitude 36000
Route SUMMR2 SCTRR TROXX SILCN6
Aircraft B738/M-SDE2E3FGHIRWXY/LB1

Departure

Time 2026-05-07 21:27
Airport Los Angeles International Airport (KLAX)

Arrival

Time 2026-05-07 22:14
Airport Norman Y. Mineta San Jose International Airport (KSJC)
Time Latitude Longitude Altitude Speed Heading
2026-05-07 20:55 33.94014 -118.40750 92 ft 0 kts 71°
2026-05-07 21:16 33.94009 -118.40770 92 ft 2 kts 71°
2026-05-07 21:16 33.94000 -118.40791 92 ft 4 kts 14°
2026-05-07 21:16 33.93975 -118.40795 91 ft 4 kts 19°
2026-05-07 21:17 33.93960 -118.40805 92 ft 4 kts 103°
2026-05-07 21:17 33.93974 -118.40818 92 ft 4 kts 173°
2026-05-07 21:17 33.93994 -118.40821 92 ft 0 kts 173°
2026-05-07 21:20 33.93984 -118.40820 92 ft 3 kts 173°
2026-05-07 21:20 33.93943 -118.40814 94 ft 8 kts 174°
2026-05-07 21:20 33.93894 -118.40787 93 ft 8 kts 137°
2026-05-07 21:20 33.93849 -118.40743 94 ft 9 kts 150°
2026-05-07 21:21 33.93812 -118.40690 96 ft 9 kts 101°
2026-05-07 21:21 33.93815 -118.40616 93 ft 10 kts 83°
2026-05-07 21:21 33.93827 -118.40503 95 ft 16 kts 84°
2026-05-07 21:21 33.93840 -118.40376 96 ft 15 kts 83°
2026-05-07 21:22 33.93852 -118.40255 95 ft 14 kts 83°
2026-05-07 21:22 33.93865 -118.40139 98 ft 14 kts 83°
2026-05-07 21:22 33.93876 -118.40029 95 ft 13 kts 83°
2026-05-07 21:22 33.93887 -118.39916 97 ft 14 kts 85°
2026-05-07 21:23 33.93899 -118.39797 95 ft 14 kts 83°
2026-05-07 21:23 33.93911 -118.39678 94 ft 15 kts 83°
2026-05-07 21:23 33.93924 -118.39552 94 ft 15 kts 81°
2026-05-07 21:23 33.93938 -118.39411 96 ft 20 kts 83°
2026-05-07 21:24 33.93957 -118.39236 93 ft 21 kts 82°
2026-05-07 21:24 33.93974 -118.39063 93 ft 21 kts 83°
2026-05-07 21:24 33.93992 -118.38893 93 ft 21 kts 82°
2026-05-07 21:24 33.94010 -118.38717 94 ft 21 kts 83°
2026-05-07 21:25 33.94027 -118.38545 96 ft 20 kts 83°
2026-05-07 21:25 33.94043 -118.38391 96 ft 16 kts 83°
2026-05-07 21:25 33.94057 -118.38263 94 ft 15 kts 83°
2026-05-07 21:25 33.94070 -118.38135 94 ft 15 kts 82°
2026-05-07 21:26 33.94067 -118.38029 94 ft 8 kts 135°
2026-05-07 21:26 33.94018 -118.38003 94 ft 8 kts 172°
2026-05-07 21:26 33.93980 -118.38041 94 ft 8 kts 261°
2026-05-07 21:26 33.93965 -118.38183 96 ft 43 kts 263°
2026-05-07 21:27 33.93902 -118.38812 96 ft 108 kts 263°
2026-05-07 21:27 33.93790 -118.39901 199 ft 147 kts 263°
2026-05-07 21:27 33.93673 -118.41155 791 ft 152 kts 261°
2026-05-07 21:27 33.93535 -118.42437 1354 ft 164 kts 262°
2026-05-07 21:28 33.93385 -118.43925 1647 ft 195 kts 263°
2026-05-07 21:28 33.93217 -118.45643 1870 ft 217 kts 263°
2026-05-07 21:28 33.93049 -118.47508 2185 ft 230 kts 264°
2026-05-07 21:28 33.92884 -118.49465 2582 ft 240 kts 264°
2026-05-07 21:29 33.92712 -118.51540 2903 ft 255 kts 265°
2026-05-07 21:29 33.92535 -118.53679 3454 ft 265 kts 265°
2026-05-07 21:29 33.92355 -118.55857 4367 ft 258 kts 265°
2026-05-07 21:29 33.92177 -118.58006 5173 ft 259 kts 265°
2026-05-07 21:30 33.91995 -118.60192 5862 ft 263 kts 265°
2026-05-07 21:30 33.91812 -118.62395 6580 ft 267 kts 265°
2026-05-07 21:30 33.91718 -118.64672 7276 ft 273 kts 270°
2026-05-07 21:30 33.91715 -118.66988 7907 ft 280 kts 271°
2026-05-07 21:31 33.91726 -118.69348 8639 ft 285 kts 271°
2026-05-07 21:31 33.91732 -118.71763 9340 ft 291 kts 271°
2026-05-07 21:31 33.91731 -118.74215 10113 ft 296 kts 271°
2026-05-07 21:31 33.91726 -118.76756 10479 ft 316 kts 271°
2026-05-07 21:32 33.91717 -118.79505 10658 ft 340 kts 271°
2026-05-07 21:32 33.91704 -118.82451 10822 ft 363 kts 271°
2026-05-07 21:32 33.91721 -118.85563 11071 ft 379 kts 273°
2026-05-07 21:32 33.91823 -118.88777 11522 ft 388 kts 274°
2026-05-07 21:33 33.91944 -118.92032 12160 ft 391 kts 273°
2026-05-07 21:33 33.92054 -118.95317 12778 ft 395 kts 273°
2026-05-07 21:33 33.92155 -118.98642 13394 ft 400 kts 273°
2026-05-07 21:33 33.92542 -119.01954 13976 ft 403 kts 290°
2026-05-07 21:34 33.93788 -119.04918 14551 ft 402 kts 304°
2026-05-07 21:34 33.95330 -119.07796 15193 ft 405 kts 304°
2026-05-07 21:34 33.96868 -119.10664 15777 ft 410 kts 304°
2026-05-07 21:34 33.98398 -119.13582 16376 ft 414 kts 303°
2026-05-07 21:35 33.99925 -119.16534 16973 ft 417 kts 303°
2026-05-07 21:35 34.01648 -119.19286 17509 ft 418 kts 319°
2026-05-07 21:35 34.04015 -119.21392 18107 ft 418 kts 328°
2026-05-07 21:35 34.06395 -119.23350 18635 ft 422 kts 327°
2026-05-07 21:36 34.08815 -119.25377 19134 ft 425 kts 327°
2026-05-07 21:36 34.11240 -119.27436 19647 ft 427 kts 326°
2026-05-07 21:36 34.13674 -119.29521 20168 ft 430 kts 326°
2026-05-07 21:36 34.16116 -119.31624 20669 ft 433 kts 326°
2026-05-07 21:37 34.18575 -119.33744 21158 ft 435 kts 326°
2026-05-07 21:37 34.21079 -119.35907 21631 ft 438 kts 326°
2026-05-07 21:37 34.23565 -119.38055 22124 ft 441 kts 326°
2026-05-07 21:37 34.26065 -119.40216 22585 ft 443 kts 326°
2026-05-07 21:38 34.28581 -119.42391 23031 ft 446 kts 326°
2026-05-07 21:38 34.31113 -119.44582 23458 ft 449 kts 326°
2026-05-07 21:38 34.33660 -119.46788 23836 ft 451 kts 326°
2026-05-07 21:38 34.36217 -119.49003 24197 ft 453 kts 326°
2026-05-07 21:39 34.38788 -119.51233 24563 ft 456 kts 326°
2026-05-07 21:39 34.41336 -119.53445 24908 ft 458 kts 326°
2026-05-07 21:39 34.43931 -119.55783 25250 ft 460 kts 323°
2026-05-07 21:39 34.46427 -119.58127 25604 ft 462 kts 323°
2026-05-07 21:40 34.48962 -119.60545 25941 ft 464 kts 323°
2026-05-07 21:40 34.51501 -119.62974 26251 ft 466 kts 323°
2026-05-07 21:40 34.54048 -119.65405 26586 ft 468 kts 323°
2026-05-07 21:40 34.56619 -119.67851 26890 ft 470 kts 323°
2026-05-07 21:41 34.59202 -119.70300 27197 ft 472 kts 323°
2026-05-07 21:41 34.61796 -119.72756 27488 ft 474 kts 323°
2026-05-07 21:41 34.64402 -119.75223 27776 ft 476 kts 323°
2026-05-07 21:41 34.67022 -119.77704 28068 ft 478 kts 323°
2026-05-07 21:42 34.69638 -119.80183 28418 ft 477 kts 323°
2026-05-07 21:42 34.72249 -119.82660 28856 ft 475 kts 323°
2026-05-07 21:42 34.74844 -119.85124 29437 ft 470 kts 323°
2026-05-07 21:42 34.77407 -119.87561 29980 ft 467 kts 323°
2026-05-07 21:43 34.79973 -119.90002 30285 ft 469 kts 323°
2026-05-07 21:43 34.82540 -119.92446 30627 ft 468 kts 323°
2026-05-07 21:43 34.85100 -119.94885 31004 ft 467 kts 323°
2026-05-07 21:43 34.87649 -119.97315 31425 ft 464 kts 323°
2026-05-07 21:44 34.90185 -119.99736 31789 ft 463 kts 323°
2026-05-07 21:44 34.92724 -120.02161 32111 ft 463 kts 323°
2026-05-07 21:44 34.95252 -120.04577 32485 ft 462 kts 323°
2026-05-07 21:44 34.97778 -120.06993 32763 ft 463 kts 323°
2026-05-07 21:45 35.00311 -120.09419 33156 ft 461 kts 323°
2026-05-07 21:45 35.02831 -120.11834 33488 ft 460 kts 323°
2026-05-07 21:45 35.05322 -120.14223 34156 ft 451 kts 323°
2026-05-07 21:45 35.07777 -120.16580 34570 ft 448 kts 323°
2026-05-07 21:46 35.10228 -120.18935 34814 ft 449 kts 323°
2026-05-07 21:46 35.12688 -120.21299 35006 ft 451 kts 322°
2026-05-07 21:46 35.15156 -120.23672 35229 ft 451 kts 322°
2026-05-07 21:46 35.17619 -120.26041 35532 ft 450 kts 323°
2026-05-07 21:47 35.20097 -120.28355 35863 ft 447 kts 323°
2026-05-07 21:47 35.22590 -120.30627 36090 ft 447 kts 324°
2026-05-07 21:47 35.27618 -120.35177 36077 ft 449 kts 324°
2026-05-07 21:48 35.32619 -120.39734 36076 ft 448 kts 323°
2026-05-07 21:48 35.37598 -120.44299 36077 ft 445 kts 323°
2026-05-07 21:49 35.41710 -120.48077 36079 ft 444 kts 323°
2026-05-07 21:49 35.46640 -120.52614 36092 ft 443 kts 323°
2026-05-07 21:50 35.51566 -120.57151 36095 ft 443 kts 323°
2026-05-07 21:50 35.56626 -120.61452 36103 ft 443 kts 328°
2026-05-07 21:51 35.61857 -120.65464 36103 ft 444 kts 328°
2026-05-07 21:51 35.67103 -120.69502 36042 ft 447 kts 328°
2026-05-07 21:52 35.69761 -120.71574 35413 ft 455 kts 328°
2026-05-07 21:52 35.72420 -120.73661 34733 ft 454 kts 328°
2026-05-07 21:52 35.75084 -120.75758 34017 ft 455 kts 328°
2026-05-07 21:52 35.77761 -120.77869 33156 ft 457 kts 328°
2026-05-07 21:53 35.80439 -120.79983 32355 ft 458 kts 328°
2026-05-07 21:53 35.83124 -120.82103 31531 ft 459 kts 328°
2026-05-07 21:53 35.85814 -120.84228 30690 ft 459 kts 328°
2026-05-07 21:53 35.88510 -120.86360 29698 ft 462 kts 328°
2026-05-07 21:54 35.91221 -120.88504 28680 ft 463 kts 328°
2026-05-07 21:54 35.93918 -120.90641 28477 ft 457 kts 328°
2026-05-07 21:54 35.96584 -120.92754 28169 ft 451 kts 328°
2026-05-07 21:54 35.99144 -120.94784 28033 ft 435 kts 328°
2026-05-07 21:55 36.01676 -120.96831 27658 ft 426 kts 325°
2026-05-07 21:55 36.04029 -120.98959 27086 ft 423 kts 323°
2026-05-07 21:55 36.06342 -121.01184 26586 ft 419 kts 322°
2026-05-07 21:55 36.08617 -121.03410 26083 ft 415 kts 322°
2026-05-07 21:56 36.10875 -121.05612 25594 ft 412 kts 322°
2026-05-07 21:56 36.13122 -121.07787 25106 ft 408 kts 322°
2026-05-07 21:56 36.15356 -121.09933 24609 ft 406 kts 323°
2026-05-07 21:56 36.17585 -121.12066 24124 ft 403 kts 323°
2026-05-07 21:57 36.19801 -121.14181 23618 ft 401 kts 323°
2026-05-07 21:57 36.22005 -121.16285 23061 ft 399 kts 323°
2026-05-07 21:57 36.24189 -121.18372 22556 ft 395 kts 323°
2026-05-07 21:57 36.26354 -121.20442 22068 ft 391 kts 323°
2026-05-07 21:58 36.28500 -121.22496 21594 ft 388 kts 323°
2026-05-07 21:58 36.30625 -121.24532 21117 ft 384 kts 323°
2026-05-07 21:58 36.32726 -121.26545 20655 ft 380 kts 323°
2026-05-07 21:58 36.34809 -121.28543 20195 ft 377 kts 323°
2026-05-07 21:59 36.36882 -121.30534 19700 ft 376 kts 323°
2026-05-07 21:59 36.38945 -121.32520 19182 ft 375 kts 323°
2026-05-07 21:59 36.40999 -121.34500 18639 ft 374 kts 323°
2026-05-07 21:59 36.43053 -121.36482 18083 ft 374 kts 323°
2026-05-07 22:00 36.45103 -121.38460 17510 ft 372 kts 323°
2026-05-07 22:00 36.47144 -121.40431 16891 ft 372 kts 323°
2026-05-07 22:00 36.49185 -121.42394 16349 ft 370 kts 324°
2026-05-07 22:00 36.51421 -121.43873 15793 ft 360 kts 341°
2026-05-07 22:01 36.53764 -121.44808 15248 ft 350 kts 342°
2026-05-07 22:01 36.56073 -121.45737 14490 ft 349 kts 342°
2026-05-07 22:01 36.58392 -121.46687 13755 ft 353 kts 341°
2026-05-07 22:01 36.60715 -121.47653 13306 ft 350 kts 341°
2026-05-07 22:02 36.63006 -121.48615 12940 ft 345 kts 340°
2026-05-07 22:02 36.65269 -121.49569 12514 ft 342 kts 340°
2026-05-07 22:02 36.67516 -121.50520 12058 ft 341 kts 340°
2026-05-07 22:02 36.69753 -121.51466 11638 ft 338 kts 339°
2026-05-07 22:03 36.71969 -121.52404 11261 ft 334 kts 339°
2026-05-07 22:03 36.74141 -121.53323 11052 ft 325 kts 339°
2026-05-07 22:03 36.76294 -121.54237 10596 ft 326 kts 339°
2026-05-07 22:03 36.78435 -121.55146 10236 ft 323 kts 339°
2026-05-07 22:04 36.80544 -121.56042 9909 ft 316 kts 339°
2026-05-07 22:04 36.82554 -121.56894 9829 ft 296 kts 339°
2026-05-07 22:04 36.84503 -121.57724 9291 ft 297 kts 339°
2026-05-07 22:04 36.86439 -121.58549 8923 ft 291 kts 338°
2026-05-07 22:05 36.88328 -121.59354 8608 ft 283 kts 339°
2026-05-07 22:05 36.90165 -121.60136 8317 ft 276 kts 338°
2026-05-07 22:05 36.91965 -121.60903 8045 ft 271 kts 339°
2026-05-07 22:05 36.93746 -121.61662 7770 ft 271 kts 339°
2026-05-07 22:06 36.95545 -121.62425 7486 ft 274 kts 339°
2026-05-07 22:06 36.97355 -121.63193 7188 ft 274 kts 339°
2026-05-07 22:06 36.99160 -121.63959 6881 ft 274 kts 339°
2026-05-07 22:06 37.00939 -121.64715 6590 ft 273 kts 339°
2026-05-07 22:07 37.02758 -121.65487 6272 ft 272 kts 339°
2026-05-07 22:07 37.04517 -121.66235 5968 ft 268 kts 339°
2026-05-07 22:07 37.06277 -121.66983 5661 ft 259 kts 340°
2026-05-07 22:07 37.07960 -121.67699 5375 ft 251 kts 340°
2026-05-07 22:08 37.09572 -121.68386 5134 ft 244 kts 340°
2026-05-07 22:08 37.11156 -121.69060 4894 ft 237 kts 340°
2026-05-07 22:08 37.12706 -121.69720 4706 ft 235 kts 340°
2026-05-07 22:08 37.14044 -121.70290 4545 ft 235 kts 340°
2026-05-07 22:09 37.15594 -121.70951 4369 ft 234 kts 340°
2026-05-07 22:09 37.17010 -121.71845 4184 ft 224 kts 320°
2026-05-07 22:09 37.18136 -121.73121 4000 ft 213 kts 317°
2026-05-07 22:09 37.19232 -121.74339 3803 ft 207 kts 318°
2026-05-07 22:10 37.20313 -121.75528 3661 ft 210 kts 318°
2026-05-07 22:10 37.21436 -121.76732 3610 ft 213 kts 320°
2026-05-07 22:10 37.22583 -121.77926 3315 ft 221 kts 319°
2026-05-07 22:10 37.23761 -121.79151 2948 ft 214 kts 320°
2026-05-07 22:11 37.24864 -121.80296 2780 ft 199 kts 320°
2026-05-07 22:11 37.25904 -121.81387 2638 ft 191 kts 319°
2026-05-07 22:11 37.26906 -121.82454 2332 ft 190 kts 319°
2026-05-07 22:11 37.27887 -121.83500 2096 ft 180 kts 320°
2026-05-07 22:12 37.28809 -121.84496 1867 ft 171 kts 319°
2026-05-07 22:12 37.29682 -121.85451 1636 ft 160 kts 319°
2026-05-07 22:12 37.30485 -121.86331 1456 ft 145 kts 319°
2026-05-07 22:12 37.31246 -121.87164 1257 ft 143 kts 320°
2026-05-07 22:13 37.31993 -121.87976 1074 ft 141 kts 320°
2026-05-07 22:13 37.32731 -121.88778 913 ft 140 kts 320°
2026-05-07 22:13 37.33463 -121.89574 726 ft 139 kts 319°
2026-05-07 22:13 37.34184 -121.90384 549 ft 139 kts 320°
2026-05-07 22:14 37.34913 -121.91189 363 ft 139 kts 320°
2026-05-07 22:14 37.35640 -121.91981 118 ft 136 kts 318°
2026-05-07 22:14 37.36312 -121.92720 65 ft 113 kts 318°
2026-05-07 22:14 37.36726 -121.93171 59 ft 32 kts 319°
2026-05-07 22:15 37.36864 -121.93219 60 ft 15 kts 38°
2026-05-07 22:15 37.36893 -121.93181 58 ft 0 kts 47°
2026-05-07 22:15 37.36899 -121.93174 61 ft 2 kts 42°
2026-05-07 22:15 37.36913 -121.93159 52 ft 3 kts 40°
2026-05-07 22:16 37.36932 -121.93139 57 ft 4 kts 39°
2026-05-07 22:16 37.36951 -121.93113 57 ft 4 kts 50°
2026-05-07 22:16 37.36968 -121.93088 58 ft 0 kts 49°
2026-05-07 22:16 37.36970 -121.93085 58 ft 1 kts 49°
2026-05-07 22:17 37.36974 -121.93079 54 ft 0 kts 49°
2026-05-07 22:17 37.36974 -121.93078 54 ft 0 kts 49°